Weather in Krugloye

Belarus     54˚14′48″N   29˚47′47″E
temp.,
°C
wind,
m/s
gust,
m/s
humid.,
%
clouds,
%
prec.,
mm/h
press.,
hPa
HPBL,
m
2 december, wed
wed200:00−3˚e2388100 0.0 1033411
03:00−5˚ne349566 0.0 103383
06:00−5˚ene37950 0.0 1032182
09:00−4˚ene479528 0.0 1032259
12:00−2˚e5790100 0.1 1031559
15:00−2˚e469394 0.1 1029415
18:00−3˚ese4895100 0.1 1029414
21:00−4˚se4893100 0.1 1028322
3 december, thu
thu300:00−4˚se489594 0.1 1028397
03:00−4˚se489593 0.3 1028375
06:00−4˚se379688 0.1 1027303
09:00−4˚se489691 0.1 1027284
12:00−2˚se589386 0.0 1026413
15:00−2˚sse589289 0.1 1026529
18:00−2˚se5893100 0.1 1025452
21:00−2˚se51095100 0.2 1025484
4 december, fri
fri400:00−1˚se51094100 0.2 1025480
03:00−1˚se51095100 0.3 1024478
06:00se71294100 0.0 1023461
09:00se71393100 0.0 1023455
12:00se71393100 0.0 1023561
15:00+1˚se81495100 0.0 1022496
18:00+1˚se81495100 0.0 1023547
21:00+1˚se81593100 0.0 1024538
5 december, sat
sat500:00se81393100 0.0 1024564
03:00se81394100 0.0 1024641
06:00se81389100 0.0 1024643
09:00se81389100 0.0 1025731
12:00+1˚sse81392100 0.0 1026683
15:00+1˚se91592100 0.0 1026503
18:00+1˚se8149299 0.0 1026487
21:00+1˚se9159299 0.0 1027460
6 december, sun
sun600:00+1˚se81491100 0.0 1027546
03:00+1˚se71291100 0.0 1028516
06:00+1˚se71391100 0.0 1027543
09:00se81391100 0.0 1028633
12:00−1˚se81390100 0.0 1029534
15:00−1˚se7138591 0.0 1028512
18:00−2˚se816850 0.0 1028460
21:00−3˚se815770 0.0 1029448